Flag for Canada Weather past 2 weeks in Qikiqtarjuaq, Nunavut Territory, Canada

Now
-22 °F

Clear.


Feels Like: -48 °F
Forecast: -26 / -17 °F
Wind: 16 mph from East

Location: Broughton Island Airport

Current Time: Mar 4, 2015 at 6:48:39 AM

Latest Report: Mar 4, 2015 at 6:00 AM


Visibility: 9 mi

Pressure: 29.60 "Hg

Humidity: 68%

Dew point: -29 °F

Location of QikiqtarjuaqLocation

Historic Weather in Qikiqtarjuaq — Graph

°F

Qikiqtarjuaq temperature yesterday

Maximum temperature yesterday: -20 °F (at 2:00 PM)
Minimum temperature yesterday: -33 °F (at 7:00 AM)
Average temperature yesterday: -26 °F

Past Weeks' High & Low Weather Summary

 TemperatureHumidityPressure
High-17 °F (Feb 22, 12:00 PM)75% (Feb 17, 11:00 AM)30.41 "Hg (Feb 17, 11:00 AM)
Low-38 °F (Feb 21, 3:50 AM)53% (Feb 20, 8:00 PM)29.50 "Hg (Feb 25, 2:00 AM)
Average-26 °F68%29.84 "Hg
* Reported Feb 17 5:00 AM — Mar 4 5:00 AM, Qikiqtarjuaq, Weather by CustomWeather, © 2015

Note: Actual official high and low records may vary slightly from our data, if they occured in-between our weather recording intervals... More about our weather records

Advertising

Qikiqtarjuaq weather history for previous 24 hours

 ConditionsComfort  
Time TempWeatherWind HumidityBarometerVisibility
5:00 AM
Wed, Mar 4
-20 °FClear.15 mph68%29.61 "Hg9 mi
4:00 AM-20 °FClear.7 mph68%29.65 "Hg9 mi
3:00 AM-22 °FClear.8 mph75%29.66 "Hg9 mi
2:00 AM-20 °FClear.10 mph75%29.69 "Hg9 mi
1:00 AM-20 °FClear.9 mph68%29.71 "Hg9 mi
12:00 AM-22 °FClear.13 mph75%29.73 "Hg9 mi
11:55 PM
Tue, Mar 3
-24 °FClear.13 mph68%29.73 "Hg9 mi
11:00 PM-26 °FClear.No wind67%29.77 "Hg9 mi
10:00 PM-27 °FClear.3 mph67%29.78 "Hg9 mi
9:00 PM-26 °FClear.No wind75%29.82 "Hg9 mi
8:00 PM-24 °FClear.No wind68%29.83 "Hg9 mi
7:00 PM-22 °FClear.2 mph68%29.86 "Hg9 mi
6:00 PM-24 °FPassing clouds.No wind75%29.88 "Hg15 mi
5:00 PM-26 °FPassing clouds.2 mph75%29.91 "Hg15 mi
4:00 PM-26 °FPassing clouds.3 mph75%29.93 "Hg15 mi
3:00 PM-22 °FPassing clouds.5 mph75%29.94 "Hg15 mi
2:00 PM-20 °FPassing clouds.6 mph68%29.94 "Hg15 mi
1:00 PM-22 °FPassing clouds.3 mph68%29.95 "Hg15 mi
12:00 PM-26 °FPassing clouds.2 mph75%29.96 "Hg15 mi
11:00 AM-24 °FPassing clouds.2 mph68%29.97 "Hg15 mi
10:00 AM-29 °FPassing clouds.No wind60%29.98 "Hg15 mi
9:00 AM-29 °FPassing clouds.2 mph67%29.99 "Hg15 mi
8:00 AM-33 °FPassing clouds.2 mph66%29.99 "Hg15 mi
7:00 AM-33 °FSunny.No wind60%29.99 "Hg9 mi
6:00 AM-27 °FClear.7 mph67%29.99 "Hg9 mi
Weather by CustomWeather, © 2015

See weather overviewHow to use our weather pages